Tracking 28125 objects as of 3-Oct-2023
HD Live streaming from Space Station
objects crossing your sky now

STARLINK-5380

Track STARLINK-5380 now!
10-day predictions
STARLINK-5380 is classified as:


NORAD ID: 54829
Int'l Code: 2022-177K
Perigee: 565.4 km
Apogee: 567.1 km
Inclination: 43.0 °
Period: 95.8 minutes
Semi major axis: 6937 km
RCS: Unknown
Launch date: December 28, 2022
Source: United States (US)
Launch site: AIR FORCE EASTERN TEST RANGE (AFETR)
Your satellite tracking list
Your tracking list is empty




NASA's NSSDC Master Catalog

Two Line Element Set (TLE):
1 54829U 22177K   23275.08410939  .00002712  00000-0  21574-3 0  9994
2 54829  43.0025 287.3660 0001198 272.8847  87.1858 15.02532311 42155
Source of the keplerian elements: AFSPC